• In Hungary
  • List of Countries
  • For 7 days
  • Water Temperature
  • Satellite Maps
  • Weather Map
  • News
  • Weather Widgets
  • user-avatar
    Login

    Hourly Weather Taldy Kurgan

    Today, 15 November, Thursday

    Time Temperature Precipitation Wind Pressure Humidity
    00:00 -12°C° 0 mm 2 mps 725 mmHg 67%
    01:00 -12°C° 0 mm 2 mps 725 mmHg 66%
    02:00 -11°C° 0 mm 1 mps 724 mmHg 65%
    03:00 -11°C° 0 mm 1 mps 725 mmHg 65%
    04:00 -11°C° 0 mm 1 mps 725 mmHg 64%
    05:00 -12°C° 0 mm 1 mps 725 mmHg 68%
    06:00 -11°C° 0 mm 1 mps 725 mmHg 67%
    07:00 -10°C° 0 mm 1 mps 726 mmHg 66%
    08:00 -9°C° 0 mm 1 mps 726 mmHg 65%
    09:00 -8°C° 0 mm 1 mps 726 mmHg 65%
    10:00 -7°C° 0 mm 1 mps 727 mmHg 65%
    11:00 -6°C° 0 mm 1 mps 727 mmHg 67%
    12:00 -4°C° 0 mm 1 mps 727 mmHg 70%
    13:00 -4°C° 0 mm 1 mps 727 mmHg 73%
    14:00 -4°C° 0 mm 1 mps 727 mmHg 76%
    15:00 -6°C° 0 mm 1 mps 727 mmHg 77%
    16:00 -8°C° 0 mm 1 mps 727 mmHg 77%
    17:00 -9°C° 0 mm 1 mps 727 mmHg 79%
    18:00 -9°C° 0 mm 1 mps 727 mmHg 78%
    19:00 -9°C° 0 mm 1 mps 727 mmHg 77%
    20:00 -9°C° 0 mm 1 mps 728 mmHg 76%
    21:00 -9°C° 0 mm 1 mps 728 mmHg 74%
    22:00 -9°C° 0 mm 1 mps 728 mmHg 73%
    23:00 -9°C° 0 mm 1 mps 728 mmHg 72%

    Tomorrow, 16 November, Friday

    Time Temperature Precipitation Wind Pressure Humidity
    00:00 -9°C° 0 mm 1 mps 728 mmHg 71%
    01:00 -9°C° 0 mm 1 mps 728 mmHg 70%
    02:00 -9°C° 0 mm 1 mps 728 mmHg 69%
    03:00 -9°C° 0 mm 1 mps 728 mmHg 67%
    04:00 -9°C° 0 mm 1 mps 728 mmHg 66%
    05:00 -9°C° 0 mm 1 mps 728 mmHg 65%
    06:00 -8°C° 0 mm 1 mps 728 mmHg 65%
    07:00 -8°C° 0 mm 1 mps 729 mmHg 64%
    08:00 -7°C° 0 mm 1 mps 729 mmHg 64%
    09:00 -6°C° 0 mm 1 mps 729 mmHg 64%
    10:00 -3°C° 0 mm 1 mps 729 mmHg 64%
    11:00 -2°C° 0 mm 1 mps 729 mmHg 64%
    12:00 -1°C° 0 mm 1 mps 729 mmHg 67%
    13:00 -1°C° 0 mm 1 mps 729 mmHg 70%
    14:00 -3°C° 0 mm 2 mps 728 mmHg 73%
    15:00 -4°C° 0 mm 2 mps 728 mmHg 72%
    16:00 -5°C° 0 mm 2 mps 728 mmHg 71%
    17:00 -6°C° 0 mm 2 mps 728 mmHg 69%
    18:00 -7°C° 0 mm 2 mps 728 mmHg 67%
    19:00 -7°C° 0 mm 2 mps 727 mmHg 65%
    20:00 -7°C° 0 mm 2 mps 727 mmHg 63%
    21:00 -7°C° 0 mm 2 mps 727 mmHg 61%
    22:00 -7°C° 0 mm 2 mps 726 mmHg 60%
    23:00 -7°C° 0 mm 2 mps 726 mmHg 58%

    Day after tomorrow, 17 November, Saturday

    Time Temperature Precipitation Wind Pressure Humidity
    00:00 -7°C° 0 mm 2 mps 726 mmHg 58%
    01:00 -7°C° 0 mm 2 mps 725 mmHg 57%
    02:00 -7°C° 0 mm 2 mps 725 mmHg 57%
    03:00 -7°C° 0 mm 2 mps 724 mmHg 56%
    04:00 -7°C° 0 mm 2 mps 724 mmHg 56%
    05:00 -7°C° 0 mm 2 mps 723 mmHg 56%
    06:00 -7°C° 0 mm 2 mps 723 mmHg 56%
    07:00 -6°C° 0 mm 2 mps 723 mmHg 57%
    08:00 -6°C° 0 mm 2 mps 723 mmHg 57%
    09:00 -4°C° 0 mm 2 mps 722 mmHg 59%
    10:00 -3°C° 0 mm 2 mps 722 mmHg 61%
    11:00 -1°C° 0 mm 2 mps 721 mmHg 63%
    12:00 -1°C° 0 mm 2 mps 721 mmHg 65%
    13:00 -1°C° 0 mm 2 mps 720 mmHg 67%
    14:00 -1°C° 0 mm 2 mps 719 mmHg 69%
    15:00 -2°C° 0 mm 2 mps 719 mmHg 67%
    16:00 -3°C° 0 mm 2 mps 718 mmHg 64%
    17:00 -4°C° 0 mm 2 mps 718 mmHg 62%
    18:00 -4°C° 0 mm 2 mps 718 mmHg 61%
    19:00 -4°C° 0 mm 2 mps 717 mmHg 60%
    20:00 -3°C° 0 mm 2 mps 717 mmHg 60%
    21:00 -4°C° 0 mm 2 mps 717 mmHg 59%
    22:00 -2°C° 0 mm 1 mps 717 mmHg 58%
    23:00 -2°C° 0 mm 1 mps 716 mmHg 57%

    18 November, Sunday

    Time Temperature Precipitation Wind Pressure Humidity
    00:00 -3°C° 0 mm 1 mps 716 mmHg 56%
    01:00 -3°C° 0 mm 1 mps 716 mmHg 54%
    02:00 -5°C° 0 mm 2 mps 716 mmHg 53%
    03:00 -5°C° 0 mm 2 mps 717 mmHg 54%
    04:00 -5°C° 0 mm 2 mps 717 mmHg 55%
    05:00 -5°C° 0 mm 2 mps 717 mmHg 57%
    06:00 -4°C° 0 mm 2 mps 717 mmHg 60%
    07:00 -4°C° 0 mm 2 mps 718 mmHg 63%
    08:00 -4°C° 0 mm 2 mps 718 mmHg 66%
    09:00 -4°C° 0 mm 3 mps 719 mmHg 67%
    10:00 -2°C° 0 mm 3 mps 719 mmHg 69%
    11:00 -2°C° 0 mm 4 mps 719 mmHg 70%
    12:00 -1°C° 0 mm 3 mps 719 mmHg 71%
    13:00 -1°C° 0 mm 3 mps 719 mmHg 72%
    14:00 -1°C° 0 mm 3 mps 719 mmHg 73%
    15:00 -2°C° 0 mm 2 mps 720 mmHg 73%
    16:00 -3°C° 0 mm 2 mps 720 mmHg 73%
    17:00 -4°C° 0 mm 2 mps 720 mmHg 73%
    18:00 -4°C° 0 mm 2 mps 720 mmHg 71%
    19:00 -4°C° 0 mm 2 mps 721 mmHg 69%
    20:00 -4°C° 0 mm 2 mps 721 mmHg 67%
    21:00 -4°C° 0 mm 2 mps 721 mmHg 67%
    22:00 -4°C° 0 mm 2 mps 721 mmHg 66%
    23:00 -4°C° 0 mm 2 mps 721 mmHg 66%

    19 November, Monday

    Time Temperature Precipitation Wind Pressure Humidity
    00:00 -4°C° 0 mm 2 mps 721 mmHg 66%
    01:00 -2°C° 0 mm 1 mps 721 mmHg 66%
    02:00 -2°C° 0 mm 1 mps 721 mmHg 66%
    03:00 -2°C° 0 mm 1 mps 721 mmHg 67%
    04:00 -2°C° 0 mm 1 mps 721 mmHg 67%
    05:00 -2°C° 0 mm 1 mps 722 mmHg 67%
    06:00 -2°C° 0 mm 1 mps 722 mmHg 68%
    07:00 -2°C° 0 mm 1 mps 722 mmHg 68%
    08:00 -2°C° 0 mm 1 mps 723 mmHg 69%
    09:00 -1°C° 0 mm 1 mps 723 mmHg 69%
    10:00 +1°C° 0 mm 1 mps 723 mmHg 69%
    11:00 +2°C° 0 mm 1 mps 723 mmHg 69%
    12:00 +2°C° 0 mm 1 mps 723 mmHg 70%
    13:00 +2°C° 0 mm 1 mps 723 mmHg 71%
    14:00 +2°C° 0 mm 1 mps 723 mmHg 72%
    15:00 -1°C° 0 mm 2 mps 723 mmHg 71%
    16:00 -2°C° 0 mm 2 mps 723 mmHg 70%
    17:00 -3°C° 0 mm 2 mps 722 mmHg 69%
    18:00 -3°C° 0 mm 2 mps 722 mmHg 66%
    19:00 -3°C° 0 mm 2 mps 722 mmHg 63%
    20:00 -3°C° 0 mm 2 mps 722 mmHg 61%
    21:00 -3°C° 0 mm 2 mps 722 mmHg 60%
    22:00 -4°C° 0 mm 3 mps 722 mmHg 59%
    23:00 -4°C° 0 mm 3 mps 721 mmHg 58%

    20 November, Tuesday

    Time Temperature Precipitation Wind Pressure Humidity
    00:00 -4°C° 0 mm 3 mps 721 mmHg 57%
    01:00 -4°C° 0 mm 3 mps 720 mmHg 57%
    02:00 -4°C° 0 mm 3 mps 720 mmHg 56%
    03:00 -4°C° 0 mm 3 mps 720 mmHg 55%
    04:00 -4°C° 0 mm 3 mps 719 mmHg 55%
    05:00 -4°C° 0 mm 3 mps 719 mmHg 54%
    06:00 -2°C° 0 mm 3 mps 719 mmHg 54%
    07:00 -2°C° 0 mm 3 mps 719 mmHg 54%
    08:00 -1°C° 0 mm 3 mps 719 mmHg 55%
    09:00 +1°C° 0 mm 2 mps 719 mmHg 57%
    10:00 +2°C° 0 mm 2 mps 718 mmHg 60%
    11:00 +4°C° 0 mm 2 mps 718 mmHg 62%
    12:00 +4°C° 0 mm 2 mps 718 mmHg 63%
    13:00 +4°C° 0 mm 2 mps 717 mmHg 64%
    14:00 +4°C° 0 mm 2 mps 717 mmHg 65%
    15:00 +3°C° 0 mm 2 mps 716 mmHg 63%
    16:00 +3°C° 0 mm 2 mps 716 mmHg 61%
    17:00 +2°C° 0 mm 2 mps 716 mmHg 60%
    18:00 +2°C° 0 mm 2 mps 716 mmHg 59%
    19:00 +3°C° 0 mm 1 mps 716 mmHg 59%
    20:00 +3°C° 0 mm 1 mps 716 mmHg 58%
    21:00 +3°C° 0 mm 1 mps 716 mmHg 58%
    22:00 +3°C° 0 mm 1 mps 716 mmHg 58%
    23:00 +2°C° 0 mm 2 mps 716 mmHg 58%
    Show more